Selinsgrove, PA

1:08 PM EST on November 22, 2019 (GMT -0500)
Penn Valley

Weather History for KSEG - September, 2019

Change the Weather History Date:

Monday, September 16, 2019

  Actual Average (WUND) Record (WUND)
Temperature  
Mean Temperature 69 °F -  
Max Temperature 78 °F - - (-1)
Min Temperature 61 °F - - (-1)
Cooling Degree Days 4    
Growing Degree Days 19 (Base 50)    
Moisture  
Dew Point 63 °F    
Average Humidity 83    
Maximum Humidity 100    
Minimum Humidity 58    
Precipitation  
Precipitation 0.00 in - - ()
Sea Level Pressure  
Sea Level Pressure 30.06 in    
Wind  
Wind Speed 1 mph (NNE)    
Max Wind Speed 6 mph    
Max Gust Speed -    
Visibility 10 miles    
Events      
Averages and records for this station are not official NWS values.
T = Trace of Precipitation, MM = Missing Value Source: NWS Daily Summary

Daily Weather History Graph

Daily Weather History Graph

Search for Another Location

Airport or City:

Astronomy

Sep. 16, 2019 Rise Set
Actual Time 6:48 AM EDT 7:15 PM EDT
Civil Twilight 6:21 AM EDT 7:42 PM EDT
Nautical Twilight 5:48 AM EDT 8:14 PM EDT
Astronomical Twilight 5:15 AM EDT 8:48 PM EDT
Moon 8:48 PM EDT (9/16) 8:54 AM EDT (9/16)
Length of Visible Light 13h 21m
Length of Day
12h 26m
Waning Gibbous, 94% of the Moon is Illuminated
Sep 16
Waning Gibbous
Sep 21
Last Quarter
Sep 28
New
Oct 5
First Quarter
Oct 13
Full

Hourly Weather History & Observations

Time (EDT) Temp. Dew Point Humidity Pressure Visibility Wind Dir Wind Speed Gust Speed Precip Events Conditions
12:53 AM 64.0 °F 62.1 °F 93% 30.09 in 10.0 mi Calm Calm - N/A   Mostly Cloudy
1:53 AM 64.0 °F 63.0 °F 96% 30.09 in 10.0 mi Calm Calm - 0.00 in   Overcast
2:53 AM 63.0 °F 62.1 °F 97% 30.09 in 10.0 mi Calm Calm - N/A   Mostly Cloudy
3:53 AM 61.0 °F 61.0 °F 100% 30.09 in 8.0 mi Calm Calm - N/A   Scattered Clouds
4:53 AM 62.1 °F 61.0 °F 96% 30.08 in 8.0 mi Calm Calm - N/A   Overcast
5:53 AM 63.0 °F 62.1 °F 97% 30.08 in 10.0 mi Calm Calm - N/A   Overcast
6:53 AM 63.0 °F 62.1 °F 97% 30.09 in 10.0 mi Calm Calm - N/A   Overcast
7:53 AM 64.0 °F 63.0 °F 96% 30.09 in 10.0 mi NNW 3.5 mph - N/A   Overcast
8:53 AM 66.0 °F 63.0 °F 90% 30.09 in 10.0 mi Calm Calm - N/A   Overcast
9:53 AM 68.0 °F 63.0 °F 84% 30.09 in 10.0 mi Calm Calm - N/A   Mostly Cloudy
10:53 AM 71.1 °F 62.1 °F 73% 30.08 in 10.0 mi Calm Calm - N/A   Overcast
11:53 AM 73.0 °F 61.0 °F 66% 30.07 in 10.0 mi Calm Calm - N/A   Overcast
12:53 PM 75.9 °F 61.0 °F 60% 30.05 in 10.0 mi Variable 3.5 mph - N/A   Overcast
1:53 PM 77.0 °F 61.0 °F 58% 30.04 in 10.0 mi Calm Calm - N/A   Mostly Cloudy
2:53 PM 75.9 °F 63.0 °F 64% 30.03 in 10.0 mi East 3.5 mph - N/A   Overcast
3:53 PM 77.0 °F 63.0 °F 62% 30.02 in 10.0 mi Calm Calm - N/A   Mostly Cloudy
4:53 PM 75.9 °F 63.0 °F 64% 30.01 in 10.0 mi NE 4.6 mph - N/A   Overcast
5:53 PM 75.0 °F 64.0 °F 69% 30.01 in 10.0 mi Calm Calm - N/A   Mostly Cloudy
6:53 PM 72.0 °F 64.9 °F 78% 30.01 in 10.0 mi Calm Calm - N/A   Mostly Cloudy
7:53 PM 68.0 °F 64.9 °F 90% 30.03 in 10.0 mi NNW 4.6 mph - N/A   Clear
8:53 PM 64.0 °F 63.0 °F 96% 30.04 in 10.0 mi Calm Calm - N/A   Clear
9:53 PM 66.9 °F 64.9 °F 93% 30.06 in 10.0 mi North 3.5 mph - N/A   Overcast
10:53 PM 66.9 °F 63.0 °F 87% 30.07 in 10.0 mi NNE 5.8 mph - N/A   Partly Cloudy
11:53 PM 64.9 °F 62.1 °F 90% 30.08 in 10.0 mi North 4.6 mph - N/A   Overcast